Lapse_Rate
5.8 5.7 5.9 5.8 5.9 5.7 5.6 5.4 5.5 5.6 5.4 5.5 5.6 5.5 5.8 5.8 5.8 5.8 5.9 5.9 5.8 5.9
6.3 6.1 6.0 6.2 6.1 6.1 6.1 5.9 5.7 5.8 5.6 5.5 5.6 5.9 5.9 6.0 5.9 5.8 5.9 5.9 5.8 5.8
6.3 6.0 5.9 6.2 6.2 6.2 6.3 6.2 6.1 6.1 5.7 5.7 5.7 5.9 6.0 5.9 5.8 5.9 5.8 5.8 5.9 5.9
6.4 6.4 6.3 6.2 6.3 6.2 6.0 6.2 6.1 6.0 6.1 6.1 6.1 5.9 5.9 5.9 5.9 5.9 6.0 6.0 5.9 5.8
6.4 6.5 6.5 6.3 6.2 6.1 6.1 6.1 6.2 6.1 6.1 6.1 6.1 6.0 5.9 6.1 6.1 5.9 6.0 6.0 6.0 5.9
6.3 6.3 6.3 6.3 6.2 6.3 6.3 6.3 6.3 6.2 6.0 6.0 5.9 5.8 5.7 5.9 5.9 5.9 5.9 5.9 5.9 5.9
6.4 6.3 6.2 6.2 6.2 6.3 6.2 6.2 6.1 6.0 5.9 5.9 5.7 5.7 5.9 5.9 5.9 5.8 5.8 5.7 5.7 5.7
6.4 6.3 6.4 6.4 6.4 6.4 6.3 6.1 6.2 6.1 6.0 6.0 6.0 5.9 5.9 5.9 5.7 5.7 5.7 5.7 5.7 5.8
6.5 6.5 6.4 6.4 6.3 6.3 6.1 6.1 6.1 6.1 6.1 6.0 5.9 5.8 5.9 5.9 5.9 5.9 5.9 5.9 5.9 5.9
6.6 6.6 6.5 6.5 6.4 6.2 6.0 6.0 6.1 6.1 6.1 6.1 6.1 6.1 5.9 5.8 5.8 5.8 5.8 5.8 5.8 5.8
6.3 6.5 6.3 6.5 6.5 6.6 6.7 6.5 6.2 6.1 6.1 6.1 6.2 6.2 6.1 6.0 5.9 5.9 5.9 5.9 5.9 5.9
6.5 6.5 6.2 6.1 6.4 6.5 6.4 6.5 6.6 6.5 6.5 6.6 6.6 6.5 6.3 6.2 6.3 6.3 6.2 6.0 6.0 6.0
6.9 6.9 6.9 6.2 6.3 6.5 6.6 6.5 6.4 6.6 6.8 7.0 7.2 7.0 6.8 6.7 6.7 6.7 6.8 6.5 6.5 6.4
7.4 7.2 7.1 7.1 7.0 6.8 6.7 6.7 6.7 6.5 6.3 6.6 6.8 6.8 6.8 6.8 6.6 6.6 6.7 6.6 6.5 6.1
Wind_Speed
12 7 8 10 10 9 10 9 6 7 7 7 7 7 6 5 6 5 5 7 6 6
11 11 10 9 10 8 7 5 6 7 8 8 7 8 7 5 8 5 5 5 6 6
13 12 10 10 11 12 10 8 6 9 9 8 7 8 8 6 7 6 5 6 5 5
12 13 13 12 11 12 10 10 10 7 7 8 8 6 6 6 3 4 5 5 6 7
12 12 13 12 12 13 12 11 9 9 8 7 7 6 6 6 4 5 7 7 7 8
12 13 13 13 13 12 12 11 10 10 10 9 8 7 7 7 8 8 8 8 9 9
12 13 13 13 12 13 12 12 11 10 9 10 9 9 9 10 10 10 10 10 10 10
12 12 12 12 12 12 12 12 11 11 11 11 10 10 11 12 11 11 11 11 11 12
11 11 11 11 11 11 11 12 13 13 13 12 10 9 8 9 10 11 11 11 11 12
11 12 11 12 12 12 12 12 13 12 11 11 11 3 6 5 10 11 11 11 11 11
11 12 12 13 13 13 12 13 12 11 12 11 7 4 3 3 8 10 11 11 11 12
13 12 11 12 12 11 11 11 12 11 11 10 4 5 2 3 6 7 8 9 11 12
14 14 14 14 13 12 11 11 9 10 9 3 7 6 2 3 5 6 7 9 10 10
14 14 13 13 12 12 11 10 9 7 5 5 4 3 2 3 4 4 6 8 9 9
Wind_Direction
204 199 205 202 207 201 195 202 174 197 230 236 251 236 233 240 254 227 242 243 239 265
198 216 207 197 210 210 206 205 201 213 219 223 232 239 239 226 229 237 234 235 244 254
201 198 207 201 208 213 204 215 209 215 213 220 226 244 237 227 194 224 239 232 207 235
203 200 201 206 205 216 218 217 220 223 227 228 227 232 230 241 243 244 240 264 244 247
199 206 204 210 206 207 218 220 224 225 232 231 228 225 232 243 274 230 239 241 252 248
203 201 209 208 213 211 213 222 221 221 226 228 230 224 227 237 244 249 254 259 256 260
203 208 214 211 209 210 213 219 222 225 230 231 233 236 246 242 242 250 256 253 250 250
202 207 210 206 209 207 212 216 220 224 230 234 238 241 234 241 244 247 252 250 247 245
197 204 209 207 203 205 211 216 219 226 233 240 247 236 219 258 260 254 255 259 255 255
197 195 200 198 198 203 209 216 220 227 233 239 242 184 193 195 257 267 263 262 268 272
198 199 195 198 198 199 203 209 214 220 223 230 234 57 36 286 255 259 268 272 272 271
193 197 196 203 200 200 202 205 208 214 216 225 160 87 69 275 256 267 283 287 289 288
195 196 190 196 202 201 201 205 215 215 218 206 159 145 98 328 277 274 283 288 269 234
197 202 199 192 195 198 204 207 203 203 198 201 170 124 9 341 266 301 307 303 300 298